Location: Naloco
(16.5478°S, 37.1017°E)
Time: 01:17:58
(UTC+00:00)

Cosmos 676 Rocket - Pass Details

Date: 13 August 2020
Orbit: 755 x 784 km, 74.0° (Epoch: 23 September)

Event Time Altitude Azimuth Distance (km) Brightness Sun altitude
Rises 16:11:13 0° 184° (S) 3,244 7.2 -12.2°
Reaches altitude 10° 16:13:41 10° 178° (S) 2,317 6.4 -12.8°
Maximum altitude 16:18:43 46° 105° (ESE) 1,031 4.2 -14.0°
Drops below altitude 10° 16:23:45 10° 32° (NNE) 2,315 6.3 -15.1°
Sets 16:26:13 0° 26° (NNE) 3,240 7.1 -15.7°
